Location: Indian Hills
(32.9760°N, 85.9450°W)
Time: 01:36:31
(UTC+00:00)

USA 234 - Pass Details

Date: 09 December 2019
Orbit: 1099 x 1108 km, 123.0° (Epoch: 16 January)

Event Time Altitude Azimuth Distance (km) Brightness Sun altitude
Rises 10:53:27 0° 32° (NNE) 3,920 6.4 -20.7°
Reaches altitude 10° 10:56:28 10° 19° (NNE) 2,962 5.6 -20.1°
Maximum altitude 11:01:19 23° 330° (NNW) 2,156 4.4 -19.1°
Enters shadow 11:02:05 22° 320° (NW) 2,179 4.4 -19.0°
